星链-37571(STARLINK-37571)

导读

STARLINK-37571(NORAD编号69043)是SpaceX星链互联网星座中的一颗低轨通信卫星,隶属于SpaceX主导的星链项目,该项目旨在构建覆盖全球的低成本空间互联网通信系统。 作为星链组网卫星,它运行在近地轨道,采用星链标准卫星总线设计,支持Ku/Ka频段通信,部分新一代星链卫星配备激光星间链路,可实现高速星际数据传输,助力全球无死角互联网覆盖,为地面用户提供低延迟宽带服务,支撑星链星座的持续扩展与服务能力升级。

基本信息
目录编号:
69043
目录名称:
STARLINK-37571
国际标识:
2026-101U
轨道中心:
EARTH
卫星名称:
星链-37571
卫星全名:
星链-37571(STARLINK-37571)
卫星状态:
在轨 (已飞行121 天)
发射日期:
2026-05-06 UTC
国别 :
美国 (US)
星等 :
--
轨道信息
数据来源 国际轨道数据 AOE轨道数据
星历时间 2026-09-04T03:53:51+0800
8小时前
查看轨道信息
2026-08-29T00:00:00+0800
6天前
查看轨道信息
半长轴 6843.701km 6843.737km
偏心率 0.0002014 0.0001728
轨道倾角 97.285° 97.287°
近地点辐角 98.845° 96.964°
升交点赤经 100.544° 94.469°
平近点角 261.303° 106.578°
近地点 464.185km 464.417km
远地点 466.943km 466.783km
周期 93.907分钟 93.907分钟
每日圈数 15.334382 15.33426
详细信息
固有亮度:
5
最大亮度:
2.5
卫星平台:
Starlink V1.0
覆盖范围:
全球
运营商:
太空探索技术公司
运营商所在国:
美国
制造商(研发单位):
太空探索技术公司
制造商所在国:
美国
使用方式:
暂无
卫星简介
Starlink 计划是 SpaceX 推出的全球卫星互联网项目,通过发射低轨道卫星,为全球尤其是偏远地区提供高速、低延迟的互联网服务。自 2019 年起,Starlink 已部署数千颗卫星,旨在缩小全球数字鸿沟,推动互联网普及。该项目还为军事、航空等行业提供通信支持,带来广泛经济效益。
2D轨道图
3D轨道图
轨道高度分析图
轨道倾角分析图
轨道综合分析图
查看轨道综合分析图
交会数据列表
事件ID 空间交会对象 最接近时刻(TCA) 交会距离 交会风险概率(CRP) 交会风险指数(CRI) 操作
CDM_260904-150703-537806-904321
CZ-4 DEB (35378)
2026-09-04T
15:07:37+0000
0.857 km
远距离
4.033685E-5 中风险 0.67
CDM_260905-130506-670306-904321
2026-09-05T
13:05:12+0000
1.880 km
极远距离
3.283395E-6 低风险 0.45
CDM_260904-211005-211306-904321
2026-09-04T
21:10:46+0000
2.248 km
极远距离
2.010233E-6 低风险 0.41
CDM_260905-150904-975006-904321
2026-09-05T
15:09:18+0000
2.158 km
极远距离
1.673858E-6 低风险 0.39
CDM_260901-114005-285906-904321
2026-09-01T
11:40:35+0000
2.773 km
极远距离
1.460832E-6 低风险 0.38
CDM_260905-104406-670306-904321
2026-09-05T
10:44:17+0000
2.996 km
极远距离
1.307923E-6 低风险 0.37
CDM_260904-044404-864006-904321
2026-09-04T
04:44:34+0000
2.839 km
极远距离
1.256668E-6 低风险 0.37